Location: Oroua River
(40.4333°S, 175.4333°E)
Time: 14:09:30
(UTC+00:00)

Cosmos 1455 - Pass Details

Date: 03 February 2023
Orbit: 481 x 502 km, 82.5° (Epoch: 22 March)

Event Time Altitude Azimuth Distance (km) Brightness Sun altitude
Rises 16:50:16 0° 187° (S) 2,587 6.1 -7.5°
Reaches altitude 10° 16:52:24 10° 185° (S) 1,696 5.1 -7.1°
Maximum altitude 16:56:06 80° 98° (E) 504 2.3 -6.5°
Drops below altitude 10° 16:59:46 10° 10° (N) 1,670 4.6 -5.9°
Sets 17:01:51 0° 9° (N) 2,543 5.5 -5.5°
